Miscellaneous Local Product
Issued by NWS Hastings, NE

Home | Current Version | Previous Version | Text Only | Print | Product List | Glossary Off
Versions: 1 2 3 4 5 6 7 8 9 10 11 12 13 14 15 16 17 18 19 20 21 22 23 24 25 26 27 28 29 30 31 32 33 34 35 36 37 38 39 40 41 42 43 44 45 46 47 48 49 50

000
AXUS43 KGID 291202
MISGRI

GID CWA HOURLY WEATHER ROUNDUP
NATIONAL WEATHER SERVICE HASTINGS NE
700 AM CDT FRI AUG 29 2014

NOTE: "FAIR" INDICATES FEW OR NO CLOUDS BELOW 12,000 FEET WITH NO
SIGNIFICANT WEATHER AND/OR OBSTRUCTIONS TO VISIBILITY.

...SOUTH CENTRAL NEBRASKA...

CITY           SKY/WX    TMP DP  RH WIND       PRES   REMARKS
GRAND ISLAND   CLOUDY    65  63  93 NW3       29.83R
HASTINGS       CLOUDY    65  62  90 NW7       29.83R
KEARNEY        CLOUDY    63  61  94 W8        29.85S
ORD            MOCLDY    60  58  92 CALM      29.83R
YORK           CLOUDY    68 N/A N/A W6        29.80S
AURORA         CLOUDY    66  66 100 NW5       29.82R
LEXINGTON      PTCLDY    60  58  95 NW6       29.87R
HOLDREGE       CLOUDY    62  60  93 CALM      29.86R
HEBRON         LGT RAIN  68  64  85 W9        29.81R

...NEBRASKA PANHANDLE...

CITY           SKY/WX    TMP DP  RH WIND       PRES   REMARKS
CHADRON        CLEAR     54  51  90 SW7       29.94R
ALLIANCE       CLEAR     50  48  93 W3        29.96R
SCOTTSBLUFF    CLEAR     50  49  96 NW7       29.99R
SIDNEY         CLEAR     54  48  80 NW12      30.01R

...WESTERN AND NORTH CENTRAL NEBRASKA...

CITY           SKY/WX    TMP DP  RH WIND       PRES   REMARKS
VALENTINE      PTCLDY    56  55  97 W5        29.87S
AINSWORTH      PTCLDY    59  58  96 W5        29.87R
ONEILL         PTCLDY    63  63  99 W7        29.83R
BROKEN BOW     CLEAR     59  56  89 CALM      29.86S
IMPERIAL       CLEAR     57  51  80 NW7       29.94R
NORTH PLATTE   CLEAR     52  51  97 NW3       29.90S
MCCOOK         CLEAR     57  55  93 W9        29.90S

...EASTERN NEBRASKA...

CITY           SKY/WX    TMP DP  RH WIND       PRES   REMARKS
NORFOLK        CLOUDY    67  65  93 NW5       29.80R
SO SIOUX CITY  CLOUDY    71  69  93 SE6       29.79R
TEKAMAH        CLOUDY    71  69  93 SE9       29.79R
COLUMBUS       CLOUDY    68  64  88 CALM      29.80F
ALBION         CLOUDY    63  62  94 CALM      29.82S
OMAHA EPPLEY   MOCLDY    72  69  90 S10       29.81R
OFFUTT AFB     LGT RAIN  71  71 100 SE6       29.81R FOG
MILLARD        CLOUDY    72  70  92 S5        29.79R
LINCOLN        LGT RAIN  71  66  84 S5        29.81R
NEBRASKA CITY  LGT RAIN  70  70 100 S5        29.82R
BEATRICE       CLOUDY    69  66  88 SE3       29.81S
FALLS CITY     MOCLDY    71  67  87 S7        29.82R

...NORTHERN KANSAS...

CITY           SKY/WX    TMP DP  RH WIND       PRES   REMARKS
GOODLAND       CLEAR     53  51  93 W6        29.98R
HILL CITY      MOCLDY    61  58  90 W5        29.90R
NORTON         SUNNY     59  54  82 W6        29.88R
PHILLIPSBURG   CLEAR     64  63  94 W7        29.86R
SMITH CENTER   CLOUDY    64  63  94 SW7       29.87R
BELOIT         CLOUDY    66  64  94 SW3       29.84R
HAYS           MOCLDY    63  57  82 W8        29.88R
RUSSELL        MOCLDY    65  61  87 W12       29.85R
CONCORDIA      LGT RAIN  66  64  93 S10       29.84R
SALINA         LGT RAIN  68  64  87 SW5       29.86S
TOPEKA         PTCLDY    71  67  87 SE5       29.85S



USA.gov is the U.S. government's official web portal to all federal, state and local government web resources and services.